Wind_Speed
14 15 14 17 16 17 18 17 15 13 14 13 14 14 14 14 15 15 15 16 19 23 23 21 19 20 21 21 21 18 18 20 16 16 12 13 16 18 22 31 25 26 18 16 18 20 23 17 21 26 27 21 11 11
14 16 17 18 19 18 21 20 19 18 17 16 16 15 15 15 16 17 17 16 19 24 24 21 23 24 23 23 24 26 26 14 11 10 13 11 16 17 19 25 18 28 32 24 19 25 24 19 20 18 22 19 15 18
15 16 17 18 19 19 21 22 21 21 20 18 16 15 16 18 19 21 21 21 23 27 32 34 30 21 25 23 20 27 30 28 30 27 23 22 25 24 17 22 21 26 31 37 33 39 32 24 25 20 13 16 19 19
18 17 18 18 18 17 20 20 19 18 19 18 18 18 19 19 19 19 22 21 22 25 34 39 32 19 10 17 24 28 27 26 21 22 30 36 40 30 33 30 31 25 28 33 39 36 23 19 22 20 19 20 20 19
17 18 19 18 17 18 18 17 16 17 18 18 19 21 23 21 18 19 24 26 27 25 32 39 35 31 26 23 26 27 28 29 33 29 32 34 38 36 39 40 48 41 35 35 40 34 27 24 20 22 21 21 20 17
15 14 14 14 15 16 17 19 18 20 22 22 20 19 17 16 18 21 29 27 25 26 34 39 32 30 24 26 26 29 24 25 31 34 33 34 32 26 23 35 43 36 35 30 34 24 19 25 21 22 21 19 19 22
15 14 14 14 13 13 13 14 17 17 18 17 16 16 17 17 20 22 27 30 23 12 24 28 24 16 14 31 29 29 30 30 32 33 37 33 30 25 37 45 36 27 25 24 19 17 23 24 20 19 20 22 23 25
15 13 12 12 12 12 13 15 16 18 18 16 15 14 13 13 16 13 9 6 14 11 23 13 23 26 22 21 12 12 26 30 36 36 36 36 30 31 40 40 34 26 9 10 12 19 20 20 20 21 21 22 24 24
15 13 12 11 10 11 12 12 13 13 11 10 9 8 7 8 8 5 4 3 10 23 13 16 22 21 12 18 11 12 17 32 22 29 34 26 28 26 24 15 5 8 8 15 18 19 20 19 17 15 15 16 18 18
14 12 12 9 9 9 11 12 12 11 11 8 9 11 9 9 8 6 3 2 4 23 24 23 19 19 17 11 8 6 7 14 11 13 16 29 31 25 24 17 14 11 16 21 17 16 15 12 12 14 15 14 14 16
15 12 7 7 7 9 13 15 15 13 13 12 13 12 10 7 3 3 4 5 7 6 8 8 8 9 7 5 3 1 3 5 4 6 11 6 15 18 22 24 23 23 27 28 24 21 17 16 14 17 13 12 11 10
13 11 11 8 5 2 6 16 18 17 15 13 10 7 4 6 6 5 5 5 5 4 4 5 6 8 5 3 2 3 3 4 3 6 5 5 8 8 11 13 12 13 16 17 19 21 17 14 13 11 9 10 9 10
12 10 8 7 6 5 7 9 14 13 12 10 7 7 5 6 8 6 6 6 5 4 4 4 7 9 3 2 3 2 2 3 3 5 5 6 4 5 6 10 10 9 10 13 16 18 15 11 10 9 8 9 9 9
10 8 7 6 7 6 6 7 8 10 10 8 7 7 6 6 6 8 10 8 8 8 10 11 11 5 5 4 4 2 3 3 2 4 3 3 4 2 4 6 8 10 12 12 14 16 15 11 7 7 8 8 8 7
7 6 6 6 7 8 6 4 6 8 8 5 5 5 7 8 9 8 12 13 14 11 9 8 10 11 9 5 4 5 3 4 4 2 3 5 4 4 6 5 5 7 9 10 10 11 10 7 6 8 7 5 3 3
6 6 6 6 6 7 7 7 7 6 6 5 6 6 6 10 12 12 13 12 11 10 11 13 10 6 9 7 6 6 4 5 3 3 5 5 2 4 5 10 11 10 6 9 12 11 8 8 8 8 7 7 5 4
3 4 6 6 6 6 6 6 5 5 4 5 4 4 5 7 9 9 11 11 14 14 13 10 7 7 5 6 7 7 6 5 9 9 8 7 8 9 10 9 10 8 7 7 10 11 10 10 10 9 8 7 6 4
7 8 8 6 6 6 6 7 8 6 6 5 6 6 8 7 7 3 5 11 12 7 1 6 5 8 5 4 4 4 5 6 7 7 8 8 9 10 11 10 11 7 7 8 10 10 11 10 10 9 8 7 6 5
5 6 6 8 10 11 10 9 12 9 10 11 7 5 5 4 5 4 3 3 7 9 9 6 6 6 7 7 7 8 8 8 7 7 8 9 10 11 12 11 9 7 9 10 10 10 10 10 10 9 8 7 6 5
7 6 7 8 7 7 14 9 13 12 9 7 9 7 5 4 6 6 6 6 6 8 11 10 10 7 8 8 9 9 9 10 11 11 10 11 11 12 12 11 8 8 10 10 9 9 9 9 9 9 9 8 7 6
9 8 9 10 11 14 11 9 10 8 9 10 10 9 9 10 10 10 10 9 9 11 10 9 10 12 13 14 14 15 15 13 12 11 11 12 12 13 12 11 10 10 12 11 10 9 9 9 9 9 9 9 8 8
15 13 11 11 11 14 15 16 15 17 17 19 19 18 19 18 15 13 13 13 12 8 8 9 12 13 15 16 16 15 15 14 14 14 13 13 13 13 12 11 10 13 14 13 11 11 10 10 10 11 11 10 10 9
17 18 17 15 14 12 12 12 14 16 16 17 17 16 16 15 14 13 13 13 11 8 9 10 11 11 12 13 14 16 15 16 16 16 16 15 14 13 12 11 11 12 14 13 13 12 11 10 11 11 11 11 10 10
19 19 19 12 13 12 14 13 13 13 13 15 15 14 12 11 11 13 17 14 10 13 17 19 19 19 19 18 18 18 16 16 16 17 17 17 16 14 12 11 11 13 14 15 15 14 12 12 11 11 11 11 11 11
19 18 13 13 15 16 21 22 21 20 20 17 16 15 10 11 12 16 17 12 9 11 15 17 19 20 22 23 23 22 21 20 20 20 19 18 16 15 13 13 13 14 16 16 15 15 14 14 13 13 12 12 12 11
16 13 10 10 17 20 21 17 16 17 16 15 11 11 10 8 9 6 9 6 4 4 5 6 8 10 11 13 15 17 19 19 18 19 19 18 16 15 15 15 14 14 15 15 16 16 16 16 15 15 14 13 12 12
11 7 13 18 14 11 12 15 15 13 11 9 10 10 9 6 5 5 4 4 3 2 4 6 7 7 8 9 10 11 14 15 15 15 15 15 15 15 15 15 16 15 15 16 17 17 17 17 16 16 15 14 14 14
12 12 15 14 13 11 13 14 14 14 11 12 13 11 6 5 3 4 5 8 9 11 14 15 15 14 13 13 12 11 11 10 11 11 12 12 13 13 13 14 14 15 15 14 16 16 16 16 16 16 16 15 15 15
2 5 11 12 12 11 11 13 14 14 13 12 12 12 13 13 14 16 18 20 22 22 21 20 20 18 15 14 14 14 13 11 10 11 11 12 12 12 12 13 14 14 14 15 15 16 16 17 17 16 16 16 16 16
4 5 5 3 3 5 7 9 8 8 10 12 15 17 18 17 17 18 19 20 20 20 19 19 20 20 19 19 18 18 16 16 15 13 12 13 15 13 12 13 14 15 15 15 15 16 17 17 18 18 17 17 16 15
6 3 2 2 2 5 8 11 12 12 12 12 13 13 12 10 8 9 10 11 12 13 13 14 14 16 16 17 18 18 18 19 17 17 18 16 14 14 14 14 15 15 15 16 17 18 18 19 19 18 18 16 16 15
7 4 6 3 2 1 4 5 5 5 5 4 3 4 5 6 7 9 8 8 10 12 13 13 12 13 13 14 15 16 17 18 19 19 19 18 20 19 17 16 16 15 15 16 16 17 18 18 18 18 17 16 15 15
17 9 10 1 4 3 5 6 5 2 3 5 3 5 4 3 2 3 4 9 12 12 16 15 15 14 14 13 13 13 15 16 17 18 20 20 19 19 20 20 19 18 17 17 17 16 16 16 17 17 17 16 15 15
Wind_Direction
218 212 205 201 202 206 203 200 197 200 203 205 208 212 218 228 238 243 245 247 252 256 256 258 258 261 264 263 266 271 275 265 250 239 236 247 256 262 263 269 267 258 251 250 255 243 238 258 225 235 256 251 254 261
218 214 211 208 206 207 211 212 211 214 216 213 215 218 225 232 240 246 249 256 260 262 263 264 265 265 269 273 266 263 262 238 224 215 222 229 238 246 254 276 282 250 243 261 246 258 277 257 263 259 246 236 258 273
218 216 215 215 216 216 213 216 224 218 209 214 219 231 233 237 248 260 264 262 261 265 269 264 271 283 266 265 266 259 258 259 252 240 242 260 263 267 264 257 267 273 273 261 270 267 265 256 255 228 232 250 263 273
221 219 215 215 213 211 214 215 212 204 207 216 229 236 242 247 259 257 258 268 267 273 278 281 285 284 273 260 256 254 264 260 264 249 242 248 251 258 264 269 266 261 293 270 258 251 254 246 227 218 253 267 266 266
222 224 222 216 217 215 210 219 216 215 217 227 232 233 243 255 262 260 264 265 264 260 273 284 291 287 293 284 277 272 267 251 239 244 237 241 249 255 266 274 260 259 283 252 246 259 251 248 233 235 260 257 259 262
215 212 208 205 197 210 214 215 220 225 230 236 240 246 249 256 264 268 273 268 275 274 272 276 292 301 299 286 278 268 255 243 234 238 244 248 245 255 263 264 260 276 279 257 246 251 249 245 243 248 255 259 263 266
205 208 211 211 212 212 209 208 218 226 231 236 242 250 256 262 267 268 273 282 294 274 245 268 287 306 298 296 290 262 242 236 238 249 250 248 260 256 265 264 265 282 265 251 225 227 238 246 250 249 258 264 264 267
198 202 202 203 206 208 213 220 227 234 239 245 246 245 247 252 266 259 253 270 224 256 227 248 275 291 317 327 295 255 234 233 240 249 244 250 253 245 251 258 278 261 257 204 216 231 238 245 255 264 271 273 275 279
192 189 188 188 211 212 208 210 217 221 222 220 234 226 218 200 207 200 189 48 219 223 215 249 264 291 322 337 14 177 206 210 229 238 234 233 241 233 260 267 270 257 230 223 234 244 250 258 264 272 282 285 283 281
175 173 182 201 198 200 204 207 213 208 209 196 197 202 183 172 144 114 97 93 192 216 230 251 271 284 297 324 350 44 116 171 190 226 229 233 239 253 241 226 248 229 225 246 257 251 251 249 264 277 282 280 288 280
166 171 178 173 182 213 224 218 211 184 176 177 175 174 151 137 95 228 229 219 214 238 249 279 296 301 293 303 287 49 138 151 183 184 190 212 248 253 246 248 251 248 246 250 248 239 235 243 265 287 274 264 263 269
152 148 155 175 192 229 82 103 130 148 158 157 145 147 184 237 231 219 225 223 224 237 258 313 324 316 283 285 266 221 210 202 196 189 212 237 236 209 230 231 254 254 248 248 248 238 234 243 261 256 260 260 272 281
156 155 159 150 141 122 99 114 130 135 142 158 173 213 218 216 216 219 214 215 209 211 233 293 344 339 301 249 275 240 233 224 208 210 219 205 185 302 261 237 260 239 231 234 231 231 228 241 232 244 266 275 280 280
142 148 149 148 147 143 147 156 168 177 172 179 197 216 224 216 219 226 239 242 252 247 264 276 292 264 250 219 245 271 247 245 234 257 227 190 288 275 232 253 230 201 208 213 211 214 212 225 235 256 267 272 280 283
169 177 172 170 171 178 181 178 184 184 187 207 219 222 230 235 235 258 262 256 272 263 260 272 268 243 221 213 216 236 228 240 237 252 269 288 275 237 230 223 222 199 202 203 199 198 205 221 238 253 255 253 216 200
188 190 199 197 197 191 194 180 185 194 227 245 232 222 252 261 275 270 261 242 245 234 242 271 219 201 207 191 217 221 217 224 194 272 322 324 324 289 237 240 251 263 237 218 208 206 215 227 233 235 224 205 208 220
181 183 173 157 161 183 201 211 227 256 237 219 210 307 282 310 310 277 267 246 245 245 262 222 200 200 187 199 212 212 220 238 278 300 314 322 319 308 303 299 305 292 250 229 215 217 217 219 222 217 207 206 222 228
202 218 234 236 225 224 225 234 240 248 250 261 273 278 303 314 329 274 232 220 218 243 186 179 197 202 210 218 228 272 290 295 299 308 311 305 302 307 305 311 295 269 223 210 206 205 209 215 213 210 208 214 221 243
255 248 220 221 221 220 224 233 250 259 268 282 271 296 306 313 330 331 304 258 233 230 229 234 225 224 235 259 275 283 287 295 300 306 311 310 308 306 302 297 284 243 215 210 210 210 211 213 213 213 213 217 225 237
255 260 249 218 226 246 224 243 251 256 261 253 279 283 295 303 321 316 310 288 267 250 236 237 247 250 260 269 275 280 287 293 295 294 300 304 305 302 301 291 268 234 218 211 209 213 213 214 216 216 217 220 226 238
254 256 258 247 227 254 245 225 224 244 261 267 275 277 274 281 293 297 294 293 278 269 272 279 271 257 254 257 265 274 278 283 287 290 288 298 303 306 298 283 254 227 215 215 217 219 221 222 223 225 227 228 232 238
248 246 249 247 249 255 258 254 253 262 262 269 273 276 282 287 290 287 280 275 278 287 278 254 249 253 257 261 269 275 276 274 278 288 287 295 299 304 297 276 247 227 220 220 223 226 229 232 232 230 229 228 231 233
237 239 240 242 242 246 256 254 249 251 253 267 281 284 287 291 288 286 279 272 269 255 249 258 258 258 262 265 267 270 273 274 276 279 280 284 291 295 288 273 247 230 229 227 228 233 235 234 230 228 226 226 227 230
227 229 232 235 232 233 244 245 250 259 269 277 284 292 295 291 288 281 281 292 287 261 258 259 259 260 261 262 263 266 273 277 278 278 280 279 280 280 271 254 241 233 232 232 231 233 231 228 227 227 227 227 227 231
205 214 217 219 224 232 242 253 259 265 269 277 279 284 275 283 279 286 288 301 287 274 265 264 262 261 262 265 266 267 267 270 274 277 278 274 271 268 263 248 241 238 237 237 236 233 230 229 230 229 227 226 227 233
211 215 212 212 225 237 246 248 258 264 267 266 257 264 273 272 270 262 281 301 296 300 305 292 279 276 274 275 276 273 271 272 273 271 270 266 260 258 256 245 238 238 238 237 233 231 229 229 230 228 227 227 231 241
207 207 220 224 227 232 238 246 250 250 251 248 250 255 262 244 242 244 256 247 228 267 322 326 321 317 311 306 302 290 275 270 273 273 266 261 257 256 253 245 240 239 239 233 230 231 232 232 230 228 227 232 240 249
234 238 233 237 241 249 252 252 255 263 262 253 250 239 229 214 221 242 224 231 255 278 297 303 301 298 292 291 297 305 302 286 272 262 260 260 257 252 246 242 241 241 241 237 232 232 230 228 227 228 233 241 251 260
260 239 250 254 253 249 255 253 256 254 256 253 252 254 254 253 254 266 269 273 275 279 285 286 283 282 283 286 287 284 284 290 283 272 265 259 256 254 248 242 238 236 234 232 230 229 229 229 230 236 243 251 258 260
328 278 268 253 263 243 242 241 245 245 244 247 249 254 260 268 274 276 279 282 283 283 283 281 280 280 280 279 277 276 275 271 268 272 268 259 254 256 256 254 249 245 243 241 238 237 236 237 240 244 251 255 252 246
3 304 316 356 291 243 239 248 251 256 262 264 266 273 283 286 286 282 289 290 294 296 295 291 289 285 282 275 270 266 266 265 263 261 259 259 261 258 256 254 251 248 244 242 242 241 241 243 245 248 251 249 242 238
36 342 301 323 1 209 224 249 263 269 264 260 265 275 295 304 309 303 289 285 293 298 300 300 296 294 294 287 277 267 260 259 259 256 250 252 251 253 254 255 254 253 253 250 248 247 245 244 243 241 239 235 233 232
349 20 20 89 31 353 339 336 316 329 155 155 191 281 282 321 324 224 303 321 313 318 328 317 309 300 294 294 294 285 275 269 266 259 250 248 251 249 246 247 249 250 250 250 251 249 244 238 235 233 229 228 225 225
Height
2907 2910 2913 2917 2920 2924 2928 2932 2935 2939 2941 2945 2948 2951 2954 2957 2959 2962 2965 2967 2969 2969 2972 2974 2978 2980 2981 2982 2984 2986 2988 2987 2989 2991 2992 2992 2990 2990 2988 2986 2988 2988 2989 2982 2984 2981 2977 2977 2982 2982 2982 2983 2983 2983
2904 2908 2911 2914 2918 2922 2925 2929 2933 2937 2940 2943 2946 2950 2952 2954 2956 2958 2961 2963 2963 2963 2965 2967 2969 2972 2975 2976 2976 2977 2979 2982 2984 2984 2984 2985 2984 2982 2981 2978 2979 2979 2978 2977 2979 2973 2975 2974 2974 2975 2976 2979 2978 2978
2903 2905 2908 2911 2915 2918 2922 2926 2930 2933 2937 2941 2944 2946 2949 2951 2953 2953 2955 2957 2958 2957 2957 2957 2961 2966 2963 2965 2967 2966 2966 2971 2974 2979 2979 2978 2977 2975 2974 2972 2970 2970 2972 2969 2972 2963 2967 2970 2970 2971 2972 2973 2973 2972
2899 2902 2905 2908 2911 2915 2918 2922 2925 2929 2933 2937 2940 2943 2945 2947 2948 2949 2949 2951 2952 2953 2948 2945 2948 2950 2953 2954 2954 2956 2960 2962 2965 2967 2968 2968 2967 2968 2965 2966 2965 2963 2962 2961 2957 2959 2962 2962 2965 2967 2967 2967 2967 2968
2895 2898 2901 2904 2908 2911 2915 2918 2922 2925 2929 2932 2935 2938 2940 2942 2943 2944 2944 2944 2945 2950 2942 2938 2938 2940 2942 2944 2946 2948 2949 2951 2952 2956 2954 2955 2958 2962 2959 2958 2945 2954 2954 2954 2946 2953 2956 2960 2962 2962 2963 2962 2962 2962
2892 2895 2898 2901 2904 2907 2911 2915 2918 2922 2925 2927 2930 2933 2935 2937 2938 2937 2935 2938 2939 2939 2935 2929 2929 2930 2933 2932 2932 2934 2937 2941 2943 2945 2947 2947 2952 2958 2951 2941 2939 2945 2944 2944 2943 2948 2953 2955 2955 2956 2956 2956 2956 2955
2890 2893 2896 2899 2902 2905 2908 2911 2914 2917 2920 2923 2925 2928 2930 2931 2931 2931 2931 2930 2931 2931 2932 2930 2925 2924 2924 2921 2917 2919 2925 2929 2934 2938 2939 2943 2946 2948 2939 2928 2935 2939 2936 2935 2939 2944 2948 2949 2950 2950 2951 2950 2949 2948
2887 2890 2894 2897 2900 2903 2906 2908 2911 2913 2916 2919 2921 2923 2925 2926 2927 2926 2926 2925 2928 2929 2930 2928 2925 2923 2919 2912 2908 2908 2913 2921 2925 2929 2932 2935 2940 2941 2926 2924 2931 2932 2934 2933 2936 2941 2943 2944 2944 2944 2944 2943 2941 2940
2885 2889 2893 2896 2898 2900 2902 2905 2907 2910 2913 2916 2918 2920 2922 2923 2923 2923 2923 2922 2922 2928 2926 2924 2922 2920 2917 2915 2910 2910 2912 2916 2920 2920 2925 2931 2930 2925 2921 2927 2925 2926 2929 2933 2934 2935 2936 2937 2938 2937 2936 2936 2935 2935
2885 2889 2892 2895 2897 2899 2901 2903 2905 2908 2911 2914 2917 2919 2920 2921 2921 2922 2923 2923 2923 2923 2922 2919 2919 2918 2919 2915 2913 2911 2911 2914 2916 2918 2919 2921 2919 2920 2922 2924 2925 2927 2928 2927 2928 2930 2931 2931 2930 2930 2930 2930 2930 2930
2887 2890 2892 2894 2896 2898 2899 2900 2903 2906 2910 2913 2916 2917 2920 2920 2921 2921 2921 2921 2921 2920 2918 2916 2916 2915 2915 2915 2913 2913 2913 2913 2914 2915 2916 2917 2915 2915 2916 2917 2919 2920 2919 2920 2921 2923 2925 2926 2926 2926 2925 2925 2925 2924
2888 2891 2893 2894 2896 2896 2896 2898 2902 2906 2910 2913 2915 2917 2918 2919 2919 2920 2918 2918 2917 2916 2915 2914 2914 2912 2912 2912 2912 2913 2912 2913 2913 2913 2914 2911 2911 2911 2912 2911 2911 2912 2912 2914 2915 2918 2920 2921 2922 2923 2922 2922 2921 2920
2890 2892 2893 2895 2897 2898 2900 2901 2904 2908 2911 2913 2915 2916 2916 2917 2916 2915 2914 2913 2913 2913 2914 2913 2913 2912 2911 2912 2912 2911 2911 2912 2912 2911 2910 2908 2908 2908 2907 2907 2907 2908 2908 2910 2912 2914 2916 2918 2918 2919 2918 2918 2917 2917
2892 2893 2895 2896 2898 2900 2901 2903 2905 2907 2909 2911 2912 2912 2912 2911 2910 2909 2909 2910 2911 2911 2912 2911 2911 2912 2911 2911 2911 2910 2910 2910 2909 2907 2904 2905 2906 2906 2906 2907 2906 2905 2906 2907 2908 2909 2912 2914 2913 2914 2915 2915 2915 2914
2893 2895 2896 2898 2899 2901 2902 2903 2904 2906 2908 2909 2909 2908 2907 2907 2907 2907 2906 2906 2907 2907 2908 2908 2908 2910 2909 2910 2909 2910 2909 2907 2905 2903 2904 2904 2903 2904 2904 2904 2904 2904 2904 2904 2905 2907 2908 2908 2909 2911 2912 2912 2913 2913
2893 2894 2896 2897 2898 2899 2900 2902 2904 2905 2906 2906 2905 2904 2904 2904 2904 2903 2902 2903 2903 2904 2905 2905 2905 2905 2906 2906 2906 2906 2906 2903 2903 2903 2902 2901 2900 2900 2900 2901 2900 2900 2901 2902 2902 2903 2904 2905 2907 2909 2910 2911 2912 2913
2893 2894 2894 2896 2897 2898 2899 2901 2902 2903 2902 2902 2902 2902 2902 2901 2900 2898 2898 2898 2899 2900 2899 2900 2901 2901 2901 2902 2902 2901 2901 2901 2900 2899 2898 2897 2897 2898 2897 2896 2896 2896 2896 2897 2898 2899 2901 2903 2905 2907 2908 2909 2910 2911
2892 2892 2893 2894 2895 2897 2898 2899 2900 2900 2899 2899 2899 2899 2899 2898 2897 2896 2895 2895 2896 2895 2896 2897 2897 2897 2897 2897 2897 2897 2897 2897 2897 2897 2896 2896 2896 2895 2894 2893 2893 2893 2893 2894 2896 2897 2899 2901 2903 2904 2905 2907 2908 2909
2889 2889 2891 2892 2893 2894 2895 2897 2897 2896 2896 2896 2897 2896 2896 2896 2895 2894 2893 2893 2892 2893 2894 2894 2894 2894 2894 2894 2894 2894 2895 2895 2895 2895 2894 2893 2892 2891 2891 2890 2890 2890 2891 2892 2894 2895 2897 2899 2900 2902 2903 2904 2905 2906
2887 2887 2888 2889 2891 2891 2892 2892 2892 2892 2892 2893 2893 2893 2893 2893 2893 2892 2891 2890 2890 2890 2890 2890 2891 2892 2892 2892 2892 2892 2892 2892 2892 2891 2891 2890 2889 2888 2887 2887 2887 2887 2888 2890 2892 2893 2895 2896 2898 2899 2900 2902 2903 2904
2883 2884 2884 2885 2886 2888 2888 2888 2888 2888 2888 2889 2889 2890 2890 2890 2890 2889 2888 2888 2888 2887 2887 2887 2888 2888 2888 2888 2888 2888 2888 2888 2888 2887 2887 2887 2886 2885 2884 2883 2884 2885 2886 2888 2890 2891 2892 2894 2895 2896 2898 2899 2900 2901
2878 2879 2880 2881 2882 2883 2883 2883 2884 2884 2886 2885 2885 2885 2884 2884 2884 2884 2884 2883 2883 2884 2883 2883 2883 2883 2883 2883 2884 2884 2884 2884 2884 2883 2883 2882 2882 2881 2880 2880 2880 2882 2883 2885 2887 2888 2889 2891 2892 2893 2895 2896 2897 2899
2871 2873 2874 2876 2878 2878 2879 2878 2878 2879 2880 2879 2879 2879 2878 2878 2878 2878 2878 2877 2879 2879 2879 2879 2878 2879 2879 2879 2879 2879 2879 2879 2879 2879 2878 2878 2878 2877 2877 2877 2877 2879 2880 2882 2884 2885 2886 2887 2888 2890 2891 2893 2894 2895
2865 2867 2868 2870 2871 2871 2872 2872 2873 2874 2875 2875 2874 2874 2874 2873 2873 2872 2871 2872 2873 2872 2872 2872 2873 2873 2874 2874 2874 2874 2874 2874 2874 2874 2873 2873 2873 2873 2873 2873 2874 2875 2877 2878 2880 2881 2883 2884 2885 2887 2888 2890 2891 2892
2860 2862 2864 2862 2863 2865 2866 2866 2867 2869 2869 2870 2870 2870 2869 2870 2869 2868 2866 2867 2866 2865 2865 2865 2866 2866 2867 2867 2867 2867 2868 2868 2868 2868 2868 2868 2868 2869 2869 2869 2870 2871 2873 2874 2876 2877 2879 2881 2882 2884 2885 2886 2888 2889
2853 2855 2856 2855 2857 2859 2860 2861 2862 2863 2864 2865 2865 2865 2865 2865 2865 2863 2862 2863 2862 2862 2861 2861 2861 2861 2861 2861 2861 2861 2861 2861 2861 2861 2862 2862 2863 2863 2864 2865 2866 2867 2868 2870 2871 2873 2875 2876 2878 2880 2881 2883 2884 2885
2848 2849 2850 2852 2853 2854 2855 2857 2858 2859 2859 2860 2860 2861 2862 2861 2860 2860 2860 2860 2860 2860 2860 2860 2859 2859 2859 2858 2857 2856 2855 2855 2855 2856 2856 2856 2857 2858 2859 2860 2861 2863 2863 2865 2867 2868 2870 2872 2874 2876 2878 2879 2881 2882
2845 2846 2847 2849 2850 2851 2852 2853 2854 2855 2855 2856 2857 2857 2858 2858 2858 2858 2858 2858 2857 2857 2857 2856 2856 2856 2855 2855 2854 2853 2852 2851 2851 2851 2852 2852 2853 2853 2854 2855 2857 2858 2859 2861 2862 2864 2866 2868 2870 2872 2873 2875 2876 2877
2843 2843 2844 2845 2845 2846 2847 2848 2849 2850 2851 2851 2852 2853 2853 2854 2855 2854 2854 2854 2853 2853 2852 2851 2850 2851 2851 2850 2850 2849 2849 2849 2848 2848 2848 2848 2849 2850 2850 2851 2852 2854 2855 2857 2858 2860 2862 2864 2866 2867 2869 2870 2871 2871
2841 2841 2841 2842 2842 2842 2844 2844 2845 2845 2846 2847 2847 2847 2848 2849 2849 2848 2848 2847 2846 2846 2846 2845 2844 2844 2844 2844 2844 2844 2844 2844 2844 2845 2844 2845 2845 2846 2847 2847 2849 2850 2851 2853 2854 2856 2858 2859 2861 2862 2864 2865 2865 2866
2840 2840 2839 2839 2839 2840 2840 2840 2840 2841 2841 2842 2842 2843 2843 2843 2844 2843 2842 2842 2841 2841 2840 2839 2839 2838 2837 2837 2837 2837 2837 2838 2838 2839 2840 2840 2840 2841 2842 2843 2844 2845 2846 2848 2849 2851 2852 2854 2855 2857 2858 2859 2860 2862
2837 2838 2838 2838 2837 2837 2837 2837 2837 2837 2838 2838 2839 2840 2840 2840 2840 2839 2839 2838 2837 2837 2836 2835 2835 2833 2832 2831 2830 2830 2830 2831 2831 2832 2833 2834 2835 2836 2837 2838 2839 2841 2842 2843 2844 2845 2846 2848 2850 2851 2852 2854 2856 2857
2837 2836 2835 2835 2835 2835 2835 2835 2835 2835 2835 2836 2837 2837 2837 2837 2837 2837 2837 2836 2835 2834 2832 2831 2830 2829 2828 2827 2826 2825 2825 2824 2824 2825 2826 2827 2829 2830 2831 2832 2834 2835 2836 2837 2839 2840 2841 2842 2844 2846 2847 2849 2851 2853